User: anonymous
Location: Caltech
(34.1382°N, 118.1253°W)
Time: 14:32:14
(UTC-07:00)
Language:

Cosmos 1939 Rocket - Orbit

View from above orbital plane
View from above orbital plane
View from above satellite
View from above satellite

Ground track
Ground track

The orbit data is extracted from the following two-line orbital elements,

1 19046U 88032B   14113.75076654  .00002623  00000-0  21714-3 0  8430
2 19046 097.6537 169.2434 0033946 279.5700 080.1688 14.99317310400040
Epoch (UTC): 23 April 2014 18:01:06
Eccentricity: 0.0033946
inclination: 97.6537°
perigee height: 545 km
apogee height: 592 km
right ascension of ascending node: 169.2434°
argument of perigee: 279.5700°
revolutions per day: 14.99317310
mean anomaly at epoch: 80.1688°
orbit number at epoch: 40004

The dashed part of the orbit path shows where the satellite is in the earth's shadow,  

DLR